[[{"header":{"parameterUnit":"m.s-1","parameterCategory":1,"la1":30.2991,"la2":30.254,"lo1":-89.0895,"lo2":-89.0444,"dy":0.0017,"dx":0.0017,"nx":28,"ny":28,"refTime":"2026-01-04T03:00:00:Z","depth":0,"parameterNumber":2,"parameterNumberName":"U-component_of_WINDS"},"data":[0,0,0,0,0,0,0,0,0,0,0,0,0,0,0,0,0,0,0,0,0,0,0,0,0,0,0,0,0,0,0,0,0,0,0,0,0,0,0,0,0,0,0,0,0,0,0,0,0,0,0,0,0,0,0,0,0,0,0.7706,0.7705,0,0.763,0.7629,0.7628,0.7562,0.7561,0.756,0.7559,0.7479,0.7477,0.7476,0,0,0,0,0,0,0,0,0,0,0,0,0,0.7794,0.7792,0.7706,0.7705,0.7704,0.763,0.7629,0.7628,0.7562,0.7561,0.756,0.7559,0.7479,0.7477,0.7476,0,0,0,0,0,0,0,0,0,0,0,0,0,0.774,0.7792,0.7706,0.7663,0.7658,0.763,0.7629,0.7627,0.7562,0.7561,0.756,0.7559,0.748,0.7478,0.7475,0.7484,0,0,0.7469,0.7468,0,0,0,0,0,0,0,0,0.7743,0.7737,0.767,0.7666,0.766,0.7604,0.763,0.7579,0.7562,0.7598,0.7559,0.7558,0.7521,0.7515,0.7503,0.748,0.7477,0.7469,0.7467,0.7466,0.7466,0,0,0,0,0,0,0,0.7747,0.774,0.7676,0.7669,0.7663,0.7646,0.7637,0.762,0.7567,0.7595,0.759,0.7582,0.7518,0.7506,0.7501,0.7476,0.7469,0.7467,0.7465,0.7464,0.7456,0.7457,0,0,0,0,0,0,0.7758,0.7744,0.7678,0.7674,0.77,0.7645,0.7636,0.7623,0.7567,0.7557,0.7583,0.7579,0.751,0.7504,0.7498,0.7504,0.7466,0.7464,0.7463,0.7455,0.7456,0.7457,0,0,0,0,0,0,0.776,0.7753,0.7681,0.7707,0.7697,0.7645,0.7632,0.7622,0.761,0.7558,0.7548,0.758,0.7509,0.7501,0.7488,0.75,0.7463,0.7461,0.7453,0.7455,0.7457,0.7517,0,0,0,0,0,0,0.7763,0.7754,0.7757,0.7708,0.7696,0.7674,0.7633,0.7622,0.7606,0.7601,0.7552,0.7543,0.7507,0.7492,0.7486,0.7497,0.746,0.7452,0.7454,0.7456,0.7514,0.7521,0.7526,0,0,0,0,0,0.7766,0.7777,0.7758,0.775,0.7699,0.7675,0.7667,0.7627,0.7608,0.761,0.7577,0.7545,0.75,0.7491,0.7484,0.7494,0.7451,0.7454,0.7456,0.7511,0.7519,0.7526,0,0,0,0,0,0,0.7828,0.7769,0.7747,0.7742,0.7714,0.7663,0.7665,0.7637,0.7612,0.7608,0.7558,0.7547,0.754,0.7516,0.7507,0.75,0.7471,0.7473,0.7516,0.7523,0.7529,0.7535,0.7458,0,0,0,0,0,0.7841,0.7827,0.7776,0.7777,0.7764,0.7717,0.7705,0.7676,0.7644,0.7632,0.7597,0.7567,0.7546,0.7533,0.7511,0.751,0.7498,0.7514,0.752,0.7526,0.7527,0.7524,0.753,0.7465,0.7465,0.7465,0,0,0.7867,0.7834,0.7828,0.7788,0.7763,0.7749,0.7707,0.7694,0.7683,0.7629,0.7615,0.7589,0.7552,0.7545,0.754,0.7525,0.7543,0.7529,0.7534,0.7532,0.7527,0.7534,0.7539,0.7467,0.7466,0.7466,0,0,0.7908,0.7882,0.7879,0.7855,0.7818,0.7787,0.7787,0.774,0.7721,0.7706,0.7666,0.7652,0.7617,0.7592,0.7575,0.7608,0.7577,0.7602,0.7635,0.7633,0.7638,0.7642,0.7653,0.7658,0.7604,0.7604,0.7604,0,0.7946,0.7924,0.7881,0.7871,0.7855,0.7807,0.7803,0.7782,0.7739,0.7728,0.7712,0.7667,0.7639,0.7625,0.7634,0.7621,0.7619,0.7607,0.7641,0.7645,0.7648,0.7658,0.7663,0.7607,0.7607,0.7606,0.7606,0,0.7972,0.7957,0.7959,0.792,0.7904,0.7897,0.7853,0.7842,0.7815,0.7786,0.7771,0.7736,0.7706,0.7701,0.7674,0.7683,0.7675,0.7651,0.7621,0.7658,0.7667,0.767,0.7612,0.7611,0.761,0.7609,0,0,0.8048,0.7986,0.7988,0.7969,0.7925,0.7912,0.7904,0.7875,0.7866,0.7838,0.7829,0.7801,0.7779,0.7759,0.7729,0.7728,0.7755,0.7703,0.7701,0.7713,0.7763,0.7781,0.7787,0.7735,0.7736,0.7736,0.7766,0,0.8081,0.8063,0.8025,0.8018,0.8004,0.7959,0.7951,0.7923,0.7896,0.7879,0.7848,0.7829,0.7801,0.7789,0.7786,0.7753,0.7765,0.775,0.7725,0.7725,0.7735,0.7791,0.781,0.784,0.7769,0.777,0.777,0,0.8117,0.8093,0.8086,0.8043,0.8035,0.8029,0.8,0.7985,0.7952,0.7932,0.7911,0.7878,0.7866,0.784,0.7821,0.7812,0.78,0.7782,0.7782,0.7778,0.7749,0.7787,0.7848,0.7853,0.7775,0.7775,0.7774,0,0.8173,0.8139,0.813,0.8116,0.8065,0.8062,0.8041,0.8007,0.7992,0.7967,0.7956,0.793,0.7915,0.7895,0.7855,0.784,0.7841,0.7811,0.7823,0.7824,0.7825,0.7825,0.7884,0.7819,0.7818,0.7818,0.7818,0,0.8213,0.821,0.8154,0.8149,0.8144,0.81,0.8097,0.8071,0.8041,0.8029,0.7989,0.7978,0.7928,0.7911,0.788,0.7869,0.7863,0.7846,0.7838,0.7849,0.7851,0.7839,0.7836,0.782,0.7819,0.7819,0.7819,0,0.8274,0.8237,0.8224,0.8178,0.8166,0.8165,0.8125,0.8117,0.8089,0.8074,0.8068,0.8022,0.8001,0.796,0.7926,0.7906,0.7901,0.7887,0.7913,0.7907,0.7921,0.792,0.7974,0.7978,0.7912,0.7912,0.7913,0,0.8302,0.8299,0.8253,0.8243,0.8223,0.8207,0.8192,0.815,0.8136,0.8099,0.8096,0.8071,0.8049,0.8017,0.798,0.7954,0.7939,0.796,0.7935,0.7946,0.7938,0.7938,0.7938,0.7965,0.7966,0.7967,0.7967,0,0.8355,0.8337,0.8318,0.8293,0.8277,0.8254,0.823,0.8223,0.8175,0.8162,0.814,0.8123,0.809,0.8066,0.8035,0.8012,0.7981,0.7976,0.7977,0.7988,0.8003,0.7994,0.7927,0.7974,0.7973,0.7973,0.7973,0.7972,0.8399,0.8394,0.8362,0.8342,0.8319,0.8298,0.8289,0.8259,0.8241,0.8211,0.8187,0.8167,0.8134,0.8089,0.8069,0.8052,0.8037,0.8039,0.8039,0.804,0.8045,0.8007,0.8046,0.8046,0.8046,0.8045,0.8045,0,0.845,0.8427,0.8409,0.8377,0.8361,0.8336,0.8307,0.8296,0.8279,0.8251,0.8231,0.8206,0.8183,0.8145,0.8118,0.8112,0.8097,0.8107,0.8106,0.8101,0.806,0.8061,0.8119,0.8119,0.8119,0.8119,0.8119,0.8119,0.8474,0.8464,0.8443,0.8421,0.8398,0.8379,0.8365,0.8345,0.8323,0.8297,0.8278,0.8254,0.8222,0.8193,0.817,0.8159,0.8151,0.8164,0.8149,0.8111,0.8104,0.8097,0.8098,0.8163,0.8163,0.8192,0.8192,0.8192]},{"header":{"parameterUnit":"m.s-1","parameterCategory":1,"la1":30.2991,"la2":30.254,"lo1":-89.0895,"lo2":-89.0444,"dy":0.0017,"dx":0.0017,"nx":28,"ny":28,"refTime":"2026-01-04T03:00:00:Z","depth":0,"parameterNumber":3,"parameterNumberName":"V-component_of_WINDS"},"data":[0,0,0,0,0,0,0,0,0,0,0,0,0,0,0,0,0,0,0,0,0,0,0,0,0,0,0,0,0,0,0,0,0,0,0,0,0,0,0,0,0,0,0,0,0,0,0,0,0,0,0,0,0,0,0,0,0,0,1.4874,1.4874,0,1.4903,1.4903,1.4903,1.493,1.493,1.4931,1.4931,1.4958,1.4958,1.4958,0,0,0,0,0,0,0,0,0,0,0,0,0,1.4839,1.4839,1.4874,1.4874,1.4874,1.4903,1.4903,1.4903,1.493,1.493,1.4931,1.4931,1.4957,1.4958,1.4958,0,0,0,0,0,0,0,0,0,0,0,0,0,1.4859,1.4839,1.4874,1.4891,1.4893,1.4902,1.4903,1.4903,1.493,1.493,1.4931,1.4931,1.4957,1.4958,1.4958,1.4952,0,0,1.496,1.4961,0,0,0,0,0,0,0,0,1.4858,1.486,1.4888,1.489,1.4892,1.4913,1.49,1.492,1.493,1.4916,1.4931,1.4932,1.4942,1.4944,1.4948,1.4953,1.4954,1.496,1.4961,1.4961,1.4961,0,0,0,0,0,0,0,1.4857,1.4859,1.4885,1.4889,1.4891,1.4897,1.49,1.4904,1.4926,1.4917,1.4919,1.4922,1.4943,1.4948,1.4949,1.4955,1.496,1.4961,1.4961,1.4961,1.4955,1.4954,0,0,0,0,0,0,1.4853,1.4858,1.4884,1.4886,1.4876,1.4897,1.4901,1.4906,1.4926,1.4929,1.4922,1.4923,1.4946,1.4948,1.495,1.4943,1.4961,1.4961,1.4962,1.4955,1.4955,1.4954,0,0,0,0,0,0,1.4852,1.4855,1.4883,1.4873,1.4877,1.4897,1.4902,1.4906,1.4911,1.4929,1.4933,1.4922,1.4947,1.4949,1.4951,1.4944,1.4962,1.4962,1.4956,1.4955,1.4954,1.4929,0,0,0,0,0,0,1.4851,1.4855,1.4853,1.4872,1.4877,1.4884,1.4902,1.4906,1.4912,1.4914,1.4931,1.4934,1.4948,1.495,1.4952,1.4946,1.4963,1.4957,1.4956,1.4955,1.4931,1.4928,1.4925,0,0,0,0,0,1.485,1.4844,1.4853,1.4856,1.4876,1.4884,1.4886,1.4903,1.4911,1.4909,1.4921,1.4934,1.4945,1.495,1.4952,1.4946,1.4957,1.4956,1.4955,1.4932,1.4928,1.4925,0,0,0,0,0,0,1.4822,1.4847,1.4857,1.4857,1.4869,1.4888,1.4886,1.4898,1.4906,1.4908,1.4927,1.4931,1.493,1.4939,1.4944,1.494,1.4953,1.4952,1.4935,1.4931,1.4929,1.4926,1.4963,0,0,0,0,0,1.4816,1.4822,1.4843,1.4842,1.4847,1.4866,1.487,1.4882,1.4893,1.4898,1.491,1.492,1.4926,1.4929,1.4936,1.4932,1.4936,1.4929,1.4926,1.4924,1.4922,1.492,1.4917,1.495,1.495,1.495,0,0,1.4804,1.4818,1.482,1.4836,1.4846,1.4851,1.4869,1.4873,1.4876,1.4898,1.4901,1.491,1.4923,1.4922,1.4922,1.4928,1.4914,1.4922,1.492,1.492,1.4919,1.4916,1.4913,1.4949,1.495,1.495,0,0,1.4783,1.4795,1.4795,1.4805,1.482,1.4833,1.4833,1.4851,1.4859,1.4862,1.4878,1.4882,1.4892,1.49,1.4905,1.4888,1.4899,1.489,1.4874,1.4872,1.487,1.4867,1.486,1.4858,1.4889,1.4889,1.4889,0,1.4765,1.4774,1.4793,1.4797,1.4803,1.4824,1.4823,1.4832,1.4847,1.4851,1.4858,1.4871,1.4881,1.4882,1.4878,1.4882,1.4882,1.4887,1.4869,1.4867,1.4865,1.4858,1.4856,1.4887,1.4887,1.4888,1.4888,0,1.4751,1.4757,1.4755,1.4771,1.4777,1.4778,1.4796,1.48,1.4811,1.4823,1.4826,1.4838,1.4848,1.4849,1.486,1.4851,1.4855,1.4865,1.4878,1.486,1.4854,1.4852,1.4885,1.4886,1.4886,1.4887,0,0,1.4713,1.474,1.4739,1.4746,1.4765,1.4769,1.4771,1.4781,1.4783,1.4794,1.4795,1.4803,1.4813,1.4819,1.4831,1.483,1.4814,1.484,1.4841,1.4834,1.4804,1.4795,1.4792,1.4822,1.4822,1.4822,1.4803,0,1.4694,1.47,1.4718,1.4718,1.4722,1.4743,1.4744,1.4755,1.4766,1.4771,1.4783,1.4788,1.4801,1.4805,1.4804,1.4816,1.4808,1.4818,1.4822,1.4822,1.4817,1.4789,1.478,1.4761,1.4801,1.48,1.48,0,1.4674,1.4684,1.4684,1.4703,1.4705,1.4707,1.4717,1.4722,1.4735,1.4743,1.475,1.4763,1.4766,1.4778,1.4781,1.4787,1.479,1.4796,1.4796,1.4796,1.4809,1.4787,1.4756,1.4753,1.4797,1.4797,1.4797,0,1.4644,1.4658,1.466,1.4666,1.4688,1.4688,1.4697,1.471,1.4715,1.4724,1.4727,1.4736,1.474,1.4746,1.4762,1.477,1.4762,1.4776,1.4767,1.4767,1.4764,1.4763,1.4731,1.4768,1.4768,1.4768,1.4768,0,1.4621,1.462,1.4647,1.4648,1.4648,1.4668,1.4667,1.4677,1.4689,1.4692,1.471,1.4712,1.4733,1.4737,1.4749,1.4748,1.475,1.4756,1.4759,1.4754,1.4753,1.4755,1.4756,1.4767,1.4767,1.4767,1.4768,0,1.4588,1.4606,1.4609,1.463,1.4635,1.4634,1.4651,1.4652,1.4665,1.4668,1.467,1.4689,1.4695,1.4711,1.4721,1.4729,1.4724,1.4731,1.472,1.4722,1.4711,1.4712,1.4678,1.4674,1.4715,1.4714,1.4714,0,1.4571,1.4571,1.4592,1.4596,1.4605,1.461,1.4616,1.4635,1.464,1.4655,1.4654,1.4661,1.4668,1.4676,1.469,1.4697,1.4703,1.4691,1.4704,1.4698,1.4701,1.47,1.47,1.4687,1.4687,1.4686,1.4686,0,1.4539,1.4549,1.4556,1.4567,1.4573,1.4582,1.4592,1.4594,1.4616,1.462,1.4627,1.4632,1.4642,1.4649,1.4659,1.4667,1.4679,1.4682,1.468,1.4674,1.4667,1.467,1.4711,1.4682,1.4683,1.4683,1.4683,1.4683,1.4513,1.4514,1.4529,1.4537,1.4547,1.4556,1.4558,1.4571,1.4577,1.4588,1.4599,1.4604,1.4616,1.4631,1.4638,1.4641,1.4648,1.4646,1.4645,1.4644,1.4641,1.4668,1.4643,1.4643,1.4644,1.4644,1.4644,0,1.4481,1.4492,1.4499,1.4513,1.4519,1.4533,1.4544,1.4548,1.4553,1.4564,1.457,1.4577,1.4584,1.4599,1.4607,1.4606,1.4612,1.4608,1.4607,1.4608,1.4635,1.4635,1.4603,1.4603,1.4603,1.4603,1.4603,1.4603,1.4465,1.4467,1.4478,1.4485,1.4495,1.4501,1.4507,1.4515,1.4524,1.4531,1.4537,1.4548,1.456,1.4569,1.4575,1.4579,1.458,1.4573,1.4579,1.4603,1.4607,1.461,1.4611,1.4574,1.4574,1.4552,1.4552,1.4552]}]]